TimeCST,TemperatureF,Dew PointF,Humidity,Sea Level PressureIn,VisibilityMPH,Wind Direction,Wind SpeedMPH,Gust SpeedMPH,PrecipitationIn,Events,Conditions,WindDirDegrees,DateUTC
12:53 AM,35.1,27.0,72,30.34,10.0,ESE,4.6,-,N/A,,Clear,110,2013-01-10 06:53:00
1:53 AM,36.0,27.0,70,30.31,10.0,ESE,6.9,-,N/A,,Clear,110,2013-01-10 07:53:00
2:53 AM,37.0,26.1,65,30.30,10.0,SE,4.6,-,N/A,,Clear,130,2013-01-10 08:53:00
3:53 AM,37.4,26.6,65,30.26,10.0,SE,4.6,-,N/A,,Clear,130,2013-01-10 09:53:00
4:53 AM,37.9,27.0,65,30.24,10.0,ESE,6.9,-,N/A,,Clear,110,2013-01-10 10:53:00
5:53 AM,37.4,26.6,65,30.18,10.0,East,5.8,-,N/A,,Scattered Clouds,100,2013-01-10 11:53:00
6:53 AM,41.0,25.0,53,30.16,10.0,ESE,13.8,-,0.00,,Overcast,120,2013-01-10 12:53:00
7:34 AM,39.2,28.4,65,30.15,10.0,SE,10.4,-,0.00,Rain,Light Rain,130,2013-01-10 13:34:00
7:53 AM,39.0,30.0,70,30.17,10.0,SE,9.2,-,0.00,Rain,Light Rain,130,2013-01-10 13:53:00
8:53 AM,37.0,33.1,86,30.13,10.0,ESE,9.2,-,0.03,,Overcast,110,2013-01-10 14:53:00
9:51 AM,37.4,33.8,87,30.06,10.0,ESE,18.4,25.3,0.00,Rain,Light Rain,120,2013-01-10 15:51:00
9:53 AM,37.9,34.0,86,30.08,10.0,ESE,16.1,25.3,0.00,Rain,Light Rain,120,2013-01-10 15:53:00
10:53 AM,37.9,36.0,93,30.04,3.0,ESE,10.4,-,0.00,Rain,Light Rain,120,2013-01-10 16:53:00
10:55 AM,37.4,35.6,93,30.02,2.5,ESE,11.5,-,0.00,Rain,Light Rain,120,2013-01-10 16:55:00
11:12 AM,37.4,35.6,93,30.00,9.0,ESE,9.2,-,0.01,Rain,Light Rain,110,2013-01-10 17:12:00
11:30 AM,37.4,35.6,93,29.97,2.0,ESE,10.4,-,0.01,Rain,Light Rain,110,2013-01-10 17:30:00
11:49 AM,37.4,35.6,93,29.97,6.0,ESE,10.4,-,0.01,Rain,Light Rain,120,2013-01-10 17:49:00
11:53 AM,37.9,36.0,93,30.00,8.0,SE,8.1,-,0.01,Rain,Light Rain,130,2013-01-10 17:53:00
12:16 PM,37.4,37.4,100,29.94,2.0,ESE,11.5,-,0.01,Rain,Light Rain,120,2013-01-10 18:16:00
12:23 PM,37.4,37.4,100,29.93,1.5,ESE,9.2,-,0.01,Rain,Light Rain,120,2013-01-10 18:23:00
12:36 PM,37.4,37.4,100,29.93,3.0,ESE,10.4,-,0.01,Rain,Light Rain,120,2013-01-10 18:36:00
12:53 PM,37.9,37.0,97,29.94,2.0,SE,9.2,-,0.01,,Overcast,130,2013-01-10 18:53:00
1:01 PM,37.4,37.4,100,29.92,1.8,SE,6.9,-,N/A,,Overcast,130,2013-01-10 19:01:00
1:53 PM,37.9,37.9,100,29.90,1.5,North,-9999.0,-,0.10,Rain,Heavy Rain,0,2013-01-10 19:53:00
2:03 PM,39.2,37.4,93,29.88,3.0,North,-9999.0,-,0.00,Rain,Light Rain,0,2013-01-10 20:03:00
2:22 PM,39.2,37.4,93,29.88,1.8,North,-9999.0,-,0.00,,Overcast,0,2013-01-10 20:22:00
2:51 PM,39.2,39.2,100,29.87,2.5,SE,8.1,-,0.01,Rain,Light Rain,130,2013-01-10 20:51:00
2:53 PM,41.0,39.0,93,29.89,2.5,SE,8.1,-,0.01,Rain,Light Rain,130,2013-01-10 20:53:00
3:10 PM,39.2,39.2,100,29.87,5.0,SE,5.8,-,0.00,Rain,Light Rain,130,2013-01-10 21:10:00
3:32 PM,41.0,39.2,93,29.87,9.0,SE,5.8,-,0.01,,Overcast,130,2013-01-10 21:32:00
3:53 PM,39.9,39.0,97,29.88,10.0,SE,4.6,-,0.01,,Overcast,130,2013-01-10 21:53:00
4:53 PM,39.9,39.0,97,29.86,6.0,ESE,5.8,-,0.00,Rain,Light Rain,110,2013-01-10 22:53:00
5:02 PM,39.2,39.2,100,29.84,6.0,ESE,6.9,-,0.00,,Overcast,120,2013-01-10 23:02:00
5:41 PM,39.2,37.4,93,29.79,2.5,East,8.1,-,0.01,Rain,Light Rain,80,2013-01-10 23:41:00
5:50 PM,39.2,37.4,93,29.78,1.8,East,6.9,-,0.01,Rain,Light Rain,90,2013-01-10 23:50:00
5:53 PM,39.0,37.9,96,29.80,2.0,East,6.9,-,0.01,Rain,Light Rain,90,2013-01-10 23:53:00
6:05 PM,39.2,37.4,93,29.81,5.0,SE,5.8,-,0.00,,Overcast,140,2013-01-11 00:05:00
6:25 PM,39.2,37.4,93,29.81,1.8,SSE,5.8,-,0.00,,Overcast,150,2013-01-11 00:25:00
6:40 PM,39.2,37.4,93,29.81,0.8,SE,5.8,-,0.00,,Mist,130,2013-01-11 00:40:00
6:53 PM,39.0,37.9,96,29.82,1.0,SE,4.6,-,0.00,,Mist,130,2013-01-11 00:53:00
7:08 PM,39.2,37.4,93,29.80,2.5,SE,6.9,-,N/A,,Overcast,140,2013-01-11 01:08:00
7:20 PM,39.2,37.4,93,29.80,4.0,SSE,6.9,-,N/A,,Overcast,150,2013-01-11 01:20:00
7:53 PM,39.0,37.9,96,29.79,5.0,SE,6.9,-,N/A,,Overcast,140,2013-01-11 01:53:00
8:08 PM,39.2,37.4,93,29.75,1.8,SSE,5.8,-,N/A,,Overcast,150,2013-01-11 02:08:00
8:23 PM,39.2,39.2,100,29.74,0.5,Calm,Calm,-,N/A,Fog,Fog,0,2013-01-11 02:23:00
8:38 PM,39.2,37.4,93,29.74,0.2,NNW,3.5,-,N/A,Fog,Fog,340,2013-01-11 02:38:00
8:53 PM,37.9,37.9,100,29.76,0.2,Calm,Calm,-,N/A,Fog,Fog,0,2013-01-11 02:53:00
9:50 PM,39.2,37.4,93,29.77,0.5,SW,5.8,-,N/A,Fog,Fog,220,2013-01-11 03:50:00
9:53 PM,39.0,39.0,100,29.78,0.5,SSW,4.6,-,N/A,Fog,Fog,210,2013-01-11 03:53:00
10:22 PM,39.2,39.2,100,29.75,1.0,SW,4.6,-,0.01,Rain,Light Rain,220,2013-01-11 04:22:00
10:32 PM,39.2,39.2,100,29.75,1.2,SSW,4.6,-,0.01,,Overcast,210,2013-01-11 04:32:00
10:46 PM,39.2,39.2,100,29.74,1.0,SSW,3.5,-,0.01,,Overcast,200,2013-01-11 04:46:00
10:53 PM,39.9,39.0,97,29.75,1.0,SSW,4.6,-,0.01,,Overcast,200,2013-01-11 04:53:00
11:05 PM,39.2,39.2,100,29.72,0.8,South,4.6,-,N/A,,Overcast,190,2013-01-11 05:05:00
11:18 PM,39.2,39.2,100,29.71,2.0,South,3.5,-,N/A,,Overcast,170,2013-01-11 05:18:00
11:33 PM,39.2,37.4,93,29.71,0.8,Calm,Calm,-,N/A,,Overcast,0,2013-01-11 05:33:00
11:45 PM,39.2,37.4,93,29.71,0.8,SSE,3.5,-,N/A,,Overcast,160,2013-01-11 05:45:00
11:53 PM,39.9,39.0,97,29.73,1.5,South,4.6,-,N/A,,Overcast,170,2013-01-11 05:53:00